Weather Roundup
Issued by NWS Chicago, IL

Home | Current Version | Previous Version | Text Only | Print | Product List | Glossary On
Versions: 1 2 3 4 5 6 7 8 9 10 11 12 13 14 15 16 17 18 19 20 21 22 23 24 25 26 27 28 29 30 31 32 33 34 35 36 37 38 39 40 41 42 43 44 45 46 47 48 49 50
000
NZUS59 KLOT 081308
HRRLOT

CHICAGO AREA WEATHER ROUNDUP
NATIONAL WEATHER SERVICE CHICAGO/ROMEOVILLE IL
700 AM CST MON FEB 08 2016

NOTE: "FAIR" INDICATES FEW OR NO CLOUDS BELOW 12,000 FEET WITH NO
SIGNIFICANT WEATHER AND/OR OBSTRUCTIONS TO VISIBILITY.

* THESE STATIONS ARE NOT UNDER NWS QUALITY CONTROL. THEY ALSO MAY NOT
  REPORT WEATHER SUCH AS PRECIPITATION OR FOG.

ILZ005-006-012>014-019>023-081400-
NORTHEAST ILLINOIS

CITY           SKY/WX    TMP DP  RH WIND       PRES   REMARKS
OHARE          LGT SNOW  30  27  88 NW10      29.62R FOG     WCI  21
MIDWAY         FLURRIES  33  28  81 W8        29.63R WCI  26
AURORA         CLOUDY    29  21  72 W17       29.65R WCI  17
LANSING*       LGT RAIN  32  31  95 W6        29.64S WCI  26
JOLIET*        CLOUDY    32  25  74 W10G17    29.66R WCI  23
WAUKEGAN       CLOUDY    31  29  92 W7        29.60R FOG     WCI  24
DUPAGE AIRPORT CLOUDY    29  22  75 W13       29.63R WCI  19
WHEELING       LGT SNOW  30  25  81 W12       29.63R WCI  20
KANKAKEE*      CLOUDY    32  29  90 W6        29.66R WCI  27
MORRIS*        CLOUDY    30  24  77 W20G25    29.63S WCI  18
LEWIS AIRPORT* CLOUDY    31  26  82 NW14      29.64R WCI  21
$$

WIZ051-052-058>065-066-070>072-081400-
SOUTHEAST WISCONSIN

CITY           SKY/WX    TMP DP  RH WIND       PRES   REMARKS
MILWAUKEE      LGT SNOW  31  28  89 NW8       29.59R VSB 1   WCI  23
KENOSHA*       CLOUDY    30  28  92 W14       29.60R FOG     WCI  19
RACINE*        CLOUDY    33  28  81 W9        29.60S WCI  25
BURLINGTON     CLOUDY    28  27  96 W6        29.61R WCI  22
WAUKESHA       CLOUDY    28  27  93 W10       29.60R WCI  19
WEST BEND      CLOUDY    30  25  80 NW10G16   29.59R WCI  21
$$

INZ001>003-010>013-019-020-081400-
NORTHWEST INDIANA

CITY           SKY/WX    TMP DP  RH WIND       PRES   REMARKS
GARY*          CLOUDY    32  28  86 SW6       29.64S WCI  26
MICHIGAN CITY* NOT AVBL
RENSSELAER*    NOT AVBL
VALPARAISO     CLOUDY    30  27  88 SW7       29.64S WCI  23
$$

LMZ740>746-081400-
SOUTHERN LAKE MICHIGAN

STATION/POSITION TIME  SKY/WX   TEMP WIND        PRES    VSBY
                                AIR  DIR/SP/G
                 (UTC)          (F)  (DEG/KT/KT) (MB)    (MI)
HARRISON CRIB    1200            33  260/ 12/ 14   N/A
BURNHAM HARBOR   1300            33  270/  9/ 10   N/A
CALUMET HARBOR   1200            31  220/  5/  8 1002.8F
BURNS HARBOR     1200            31  210/ 10/ 12 1004.4S
MICHIGAN CITY    1200            30  180/ 10/ 13   N/A
$$

ABBREVIATIONS USED IN REMARKS
   TC - TEMPERATURE IN CELSIUS
  WCI - WIND CHILL INDEX
   HX - HEAT INDEX
  VSB - VISIBILITY
$$




USA.gov is the U.S. government's official web portal to all federal, state and local government web resources and services.